Time,TemperatureF,DewpointF,PressureIn,WindDirection,WindDirectionDegrees,WindSpeedMPH,WindSpeedGustMPH,Humidity,HourlyPrecipIn,Conditions,Clouds,dailyrainin,SoftwareType,DateUTC
2013-07-10 00:03:00,69.0,65.0,30.07,East,82,0.0,1.0,86,0.00,,,0.00,weatherlink.com 1.10,2013-07-10 04:03:00,
2013-07-10 00:18:00,69.0,65.0,30.07,NE,46,0.0,2.0,87,0.00,,,0.00,weatherlink.com 1.10,2013-07-10 04:18:00,
2013-07-10 00:33:00,68.9,65.0,30.07,SE,143,1.0,3.0,87,0.00,,,0.00,weatherlink.com 1.10,2013-07-10 04:33:00,
2013-07-10 00:48:00,68.7,65.0,30.07,NNE,32,0.0,1.0,88,0.00,,,0.00,weatherlink.com 1.10,2013-07-10 04:48:00,
2013-07-10 01:03:00,68.3,65.0,30.06,NE,34,0.0,1.0,90,0.00,,,0.00,weatherlink.com 1.10,2013-07-10 05:03:00,
2013-07-10 01:18:00,68.1,65.0,30.05,NE,39,0.0,2.0,90,0.00,,,0.00,weatherlink.com 1.10,2013-07-10 05:18:00,
2013-07-10 01:33:00,68.1,65.0,30.05,East,98,0.0,2.0,90,0.00,,,0.00,weatherlink.com 1.10,2013-07-10 05:33:00,
2013-07-10 01:48:00,68.2,65.0,30.05,WNW,293,1.0,2.0,90,0.00,,,0.00,weatherlink.com 1.10,2013-07-10 05:48:00,
2013-07-10 02:03:00,68.0,65.0,30.04,NNE,32,1.0,3.0,90,0.00,,,0.00,weatherlink.com 1.10,2013-07-10 06:03:00,
2013-07-10 02:18:00,67.9,65.0,30.04,SE,141,0.0,3.0,91,0.00,,,0.00,weatherlink.com 1.10,2013-07-10 06:18:00,
2013-07-10 02:33:00,67.6,65.0,30.03,ESE,108,0.0,3.0,91,0.00,,,0.00,weatherlink.com 1.10,2013-07-10 06:33:00,
2013-07-10 02:48:00,67.4,65.0,30.03,SE,124,0.0,3.0,92,0.00,,,0.00,weatherlink.com 1.10,2013-07-10 06:48:00,
2013-07-10 03:04:00,67.4,65.0,30.02,SE,136,0.0,3.0,92,0.00,,,0.00,weatherlink.com 1.10,2013-07-10 07:04:00,
2013-07-10 03:19:00,67.3,65.0,30.02,NNW,333,2.0,3.0,92,0.00,,,0.00,weatherlink.com 1.10,2013-07-10 07:19:00,
2013-07-10 03:34:00,67.3,65.0,30.02,SSW,211,0.0,2.0,93,0.00,,,0.00,weatherlink.com 1.10,2013-07-10 07:34:00,
2013-07-10 03:49:00,67.3,65.0,30.02,NE,34,0.0,2.0,93,0.00,,,0.00,weatherlink.com 1.10,2013-07-10 07:49:00,
2013-07-10 04:04:00,67.4,65.0,30.01,NE,37,0.0,1.0,93,0.00,,,0.00,weatherlink.com 1.10,2013-07-10 08:04:00,
2013-07-10 04:19:00,67.6,66.0,30.01,SE,136,1.0,1.0,93,0.00,,,0.00,weatherlink.com 1.10,2013-07-10 08:19:00,
2013-07-10 04:34:00,67.6,65.0,30.01,East,97,2.0,2.0,92,0.00,,,0.00,weatherlink.com 1.10,2013-07-10 08:34:00,
2013-07-10 04:49:00,67.4,65.0,30.01,ESE,119,1.0,3.0,93,0.00,,,0.00,weatherlink.com 1.10,2013-07-10 08:49:00,
2013-07-10 05:04:00,67.2,66.0,30.01,SW,224,0.0,1.0,94,0.00,,,0.00,weatherlink.com 1.10,2013-07-10 09:04:00,
2013-07-10 05:19:00,67.1,65.0,30.00,South,184,0.0,1.0,94,0.00,,,0.00,weatherlink.com 1.10,2013-07-10 09:19:00,
2013-07-10 05:34:00,67.0,66.0,30.01,SSE,150,0.0,2.0,95,0.00,,,0.00,weatherlink.com 1.10,2013-07-10 09:34:00,
2013-07-10 05:49:00,67.0,66.0,30.00,ESE,108,0.0,3.0,95,0.00,,,0.00,weatherlink.com 1.10,2013-07-10 09:49:00,
2013-07-10 06:04:00,67.1,66.0,30.00,SE,144,0.0,2.0,95,0.00,,,0.00,weatherlink.com 1.10,2013-07-10 10:04:00,
2013-07-10 06:19:00,67.3,66.0,30.01,SE,144,0.0,0.0,95,0.00,,,0.00,weatherlink.com 1.10,2013-07-10 10:19:00,
2013-07-10 06:34:00,67.4,66.0,30.01,West,266,0.0,1.0,95,0.00,,,0.00,weatherlink.com 1.10,2013-07-10 10:34:00,
2013-07-10 06:49:00,67.6,66.0,30.00,NW,311,1.0,3.0,95,0.00,,,0.00,weatherlink.com 1.10,2013-07-10 10:49:00,
2013-07-10 07:04:00,67.7,66.0,30.01,SW,231,0.0,2.0,95,0.00,,,0.00,weatherlink.com 1.10,2013-07-10 11:04:00,
2013-07-10 07:19:00,67.8,66.0,30.00,NW,308,2.0,3.0,95,0.00,,,0.00,weatherlink.com 1.10,2013-07-10 11:19:00,
2013-07-10 07:34:00,67.9,67.0,30.00,NNE,29,1.0,3.0,95,0.00,,,0.00,weatherlink.com 1.10,2013-07-10 11:34:00,
2013-07-10 07:49:00,68.0,67.0,30.00,East,101,0.0,2.0,95,0.01,,,0.01,weatherlink.com 1.10,2013-07-10 11:49:00,
2013-07-10 08:04:00,68.0,67.0,30.00,East,93,0.0,2.0,95,0.03,,,0.03,weatherlink.com 1.10,2013-07-10 12:04:00,
2013-07-10 08:19:00,68.3,67.0,29.99,NE,34,0.0,1.0,96,0.03,,,0.03,weatherlink.com 1.10,2013-07-10 12:19:00,
2013-07-10 08:34:00,68.7,68.0,29.99,SSW,207,0.0,2.0,96,0.03,,,0.03,weatherlink.com 1.10,2013-07-10 12:34:00,
2013-07-10 08:49:00,69.2,68.0,29.98,SSE,161,0.0,1.0,96,0.02,,,0.03,weatherlink.com 1.10,2013-07-10 12:49:00,
2013-07-10 09:04:00,69.6,69.0,29.98,SSE,160,0.0,0.0,96,0.00,,,0.03,weatherlink.com 1.10,2013-07-10 13:04:00,
2013-07-10 09:19:00,70.0,69.0,29.97,SSE,160,0.0,1.0,96,0.00,,,0.03,weatherlink.com 1.10,2013-07-10 13:19:00,
2013-07-10 09:34:00,70.4,69.0,29.97,ESE,122,0.0,2.0,96,0.00,,,0.03,weatherlink.com 1.10,2013-07-10 13:34:00,
2013-07-10 09:49:00,70.8,69.0,29.96,SSW,197,0.0,1.0,95,0.00,,,0.03,weatherlink.com 1.10,2013-07-10 13:49:00,
2013-07-10 10:04:00,71.6,70.0,29.97,SSE,168,1.0,-999.0,95,-99.99,,,0.03,weatherlink.com 1.10,2013-07-10 14:04:00,
2013-07-10 10:19:00,71.5,70.0,29.96,ESE,112,0.0,1.0,94,0.00,,,0.03,weatherlink.com 1.10,2013-07-10 14:19:00,
2013-07-10 10:34:00,73.4,72.0,29.95,ESE,112,0.0,1.0,95,0.00,,,0.03,weatherlink.com 1.10,2013-07-10 14:34:00,
2013-07-10 10:49:00,74.8,72.0,29.95,SE,146,1.0,3.0,91,0.00,,,0.03,weatherlink.com 1.10,2013-07-10 14:49:00,
2013-07-10 11:04:00,77.3,74.0,29.95,SSE,156,1.0,1.0,88,0.00,,,0.03,weatherlink.com 1.10,2013-07-10 15:04:00,
2013-07-10 11:19:00,79.2,74.0,29.94,SE,143,1.0,4.0,83,0.00,,,0.03,weatherlink.com 1.10,2013-07-10 15:19:00,
2013-07-10 11:34:00,81.5,74.0,29.93,SSW,203,0.0,1.0,79,0.00,,,0.03,weatherlink.com 1.10,2013-07-10 15:34:00,
2013-07-10 11:50:00,83.0,74.0,29.93,West,274,0.0,3.0,74,0.00,,,0.03,weatherlink.com 1.10,2013-07-10 15:50:00,
2013-07-10 12:05:00,83.2,74.0,29.93,SSW,207,0.0,6.0,73,0.00,,,0.03,weatherlink.com 1.10,2013-07-10 16:05:00,
2013-07-10 12:35:00,84.3,74.0,29.91,SSE,156,1.0,2.0,71,0.00,,,0.03,weatherlink.com 1.10,2013-07-10 16:35:00,
2013-07-10 12:50:00,86.9,74.0,29.91,SSE,160,2.0,6.0,65,0.00,,,0.03,weatherlink.com 1.10,2013-07-10 16:50:00,
2013-07-10 13:05:00,85.2,75.0,29.90,NNE,29,0.0,4.0,71,0.00,,,0.03,weatherlink.com 1.10,2013-07-10 17:05:00,
2013-07-10 13:20:00,85.2,75.0,29.89,ESE,115,5.0,6.0,72,0.00,,,0.03,weatherlink.com 1.10,2013-07-10 17:20:00,
2013-07-10 13:35:00,83.3,75.0,29.88,East,98,1.0,4.0,75,0.00,,,0.03,weatherlink.com 1.10,2013-07-10 17:35:00,
2013-07-10 13:50:00,86.7,75.0,29.87,WSW,243,1.0,5.0,69,0.00,,,0.03,weatherlink.com 1.10,2013-07-10 17:50:00,
2013-07-10 14:05:00,87.6,74.0,29.86,SSW,211,2.0,7.0,65,0.00,,,0.03,weatherlink.com 1.10,2013-07-10 18:05:00,
2013-07-10 14:20:00,86.6,75.0,29.86,SE,144,5.0,9.0,68,0.00,,,0.03,weatherlink.com 1.10,2013-07-10 18:20:00,
2013-07-10 14:35:00,87.4,74.0,29.86,SW,233,4.0,10.0,65,0.00,,,0.03,weatherlink.com 1.10,2013-07-10 18:35:00,
2013-07-10 14:50:00,86.9,74.0,29.85,West,280,2.0,12.0,66,0.00,,,0.03,weatherlink.com 1.10,2013-07-10 18:50:00,
2013-07-10 15:04:00,87.7,74.0,29.85,West,264,3.0,12.0,64,0.00,,,0.03,weatherlink.com 1.10,2013-07-10 19:04:00,
2013-07-10 15:20:00,87.1,74.0,29.84,West,280,4.0,8.0,66,0.00,,,0.03,weatherlink.com 1.10,2013-07-10 19:20:00,
2013-07-10 15:35:00,87.1,74.0,29.84,NNW,335,2.0,11.0,65,0.00,,,0.03,weatherlink.com 1.10,2013-07-10 19:35:00,
2013-07-10 15:51:00,86.6,74.0,29.83,SSE,159,6.0,10.0,66,0.00,,,0.03,weatherlink.com 1.10,2013-07-10 19:51:00,
2013-07-10 16:06:00,85.8,74.0,29.82,SSW,200,1.0,12.0,67,0.00,,,0.03,weatherlink.com 1.10,2013-07-10 20:06:00,
2013-07-10 16:20:00,85.4,75.0,29.82,West,275,3.0,10.0,70,0.00,,,0.03,weatherlink.com 1.10,2013-07-10 20:20:00,
2013-07-10 16:35:00,85.8,75.0,29.82,SSE,153,7.0,15.0,69,0.00,,,0.03,weatherlink.com 1.10,2013-07-10 20:35:00,
2013-07-10 16:50:00,84.3,75.0,29.80,SSW,203,2.0,16.0,73,0.00,,,0.03,weatherlink.com 1.10,2013-07-10 20:50:00,
2013-07-10 17:05:00,83.6,75.0,29.80,South,170,3.0,13.0,74,0.00,,,0.03,weatherlink.com 1.10,2013-07-10 21:05:00,
2013-07-10 17:20:00,82.7,74.0,29.81,SE,143,1.0,12.0,75,0.00,,,0.03,weatherlink.com 1.10,2013-07-10 21:20:00,
2013-07-10 17:35:00,82.6,74.0,29.80,South,181,3.0,14.0,75,0.00,,,0.03,weatherlink.com 1.10,2013-07-10 21:35:00,
2013-07-10 17:50:00,81.7,74.0,29.80,WSW,242,3.0,9.0,77,0.00,,,0.03,weatherlink.com 1.10,2013-07-10 21:50:00,
2013-07-10 18:05:00,81.1,74.0,29.79,SW,221,0.0,10.0,78,0.00,,,0.03,weatherlink.com 1.10,2013-07-10 22:05:00,
2013-07-10 18:20:00,81.0,74.0,29.79,NNW,328,1.0,8.0,79,0.00,,,0.03,weatherlink.com 1.10,2013-07-10 22:20:00,
2013-07-10 18:35:00,80.2,74.0,29.79,South,173,3.0,13.0,81,0.00,,,0.03,weatherlink.com 1.10,2013-07-10 22:35:00,
2013-07-10 18:50:00,79.7,75.0,29.79,SSE,152,1.0,8.0,84,0.00,,,0.03,weatherlink.com 1.10,2013-07-10 22:50:00,
2013-07-10 19:05:00,78.8,74.0,29.79,SW,236,1.0,5.0,86,0.01,,,0.04,weatherlink.com 1.10,2013-07-10 23:05:00,
2013-07-10 19:20:00,78.5,75.0,29.79,SSE,163,3.0,7.0,88,0.01,,,0.04,weatherlink.com 1.10,2013-07-10 23:20:00,
2013-07-10 19:35:00,78.1,75.0,29.80,WNW,284,2.0,4.0,89,0.01,,,0.04,weatherlink.com 1.10,2013-07-10 23:35:00,
2013-07-10 19:50:00,77.8,74.0,29.80,WSW,245,0.0,6.0,89,0.01,,,0.04,weatherlink.com 1.10,2013-07-10 23:50:00,
2013-07-10 20:05:00,77.5,74.0,29.80,WSW,245,2.0,5.0,90,0.00,,,0.04,weatherlink.com 1.10,2013-07-11 00:05:00,
2013-07-10 20:20:00,77.4,74.0,29.81,SW,228,3.0,6.0,90,0.00,,,0.04,weatherlink.com 1.10,2013-07-11 00:20:00,
2013-07-10 20:35:00,77.3,74.0,29.81,SSE,152,2.0,7.0,89,0.00,,,0.04,weatherlink.com 1.10,2013-07-11 00:35:00,
2013-07-10 20:50:00,77.2,74.0,29.80,SE,135,1.0,5.0,90,0.00,,,0.04,weatherlink.com 1.10,2013-07-11 00:50:00,
2013-07-10 21:06:00,77.1,74.0,29.80,NW,316,2.0,4.0,90,0.00,,,0.04,weatherlink.com 1.10,2013-07-11 01:06:00,
2013-07-10 21:21:00,77.0,74.0,29.80,SSW,204,2.0,7.0,90,0.00,,,0.04,weatherlink.com 1.10,2013-07-11 01:21:00,
2013-07-10 21:36:00,76.8,74.0,29.80,West,269,3.0,6.0,90,0.00,,,0.04,weatherlink.com 1.10,2013-07-11 01:36:00,
2013-07-10 21:51:00,76.6,74.0,29.80,West,271,1.0,7.0,91,0.01,,,0.05,weatherlink.com 1.10,2013-07-11 01:51:00,
2013-07-10 22:06:00,76.3,74.0,29.80,SE,135,2.0,4.0,92,0.01,,,0.05,weatherlink.com 1.10,2013-07-11 02:06:00,
2013-07-10 22:21:00,76.2,74.0,29.80,SSE,153,3.0,6.0,92,0.01,,,0.05,weatherlink.com 1.10,2013-07-11 02:21:00,
2013-07-10 22:36:00,76.2,74.0,29.80,West,280,1.0,9.0,92,0.01,,,0.05,weatherlink.com 1.10,2013-07-11 02:36:00,
2013-07-10 22:51:00,76.2,74.0,29.81,SW,236,4.0,6.0,91,0.00,,,0.05,weatherlink.com 1.10,2013-07-11 02:51:00,
2013-07-10 23:06:00,76.2,74.0,29.80,SSW,200,1.0,6.0,91,0.00,,,0.05,weatherlink.com 1.10,2013-07-11 03:06:00,
2013-07-10 23:21:00,76.2,74.0,29.80,West,267,1.0,8.0,91,0.00,,,0.05,weatherlink.com 1.10,2013-07-11 03:21:00,
2013-07-10 23:36:00,76.0,73.0,29.80,SW,226,1.0,5.0,91,0.00,,,0.05,weatherlink.com 1.10,2013-07-11 03:36:00,
2013-07-10 23:51:00,75.9,73.0,29.80,WSW,250,2.0,5.0,91,0.00,,,0.05,weatherlink.com 1.10,2013-07-11 03:51:00,